sat.trackr.live / text

‹ back to catalog

2024-173C

NORAD 61229 · 2024-173C

PAYLOAD ACTIVE UNKNOWN

§ Identity

Operator
Country
PRC
Launch date
2024-09-24
Launch site
YSLA
Launch vehicle
Mass (kg)
RCS (m²)

External: N2YO · Heavens-Above · Gunter

§ Orbital elements

Epoch: 2026-09-22T23:39:27.425376Z

Period
92.56 min
Inclination
97.3374°
Eccentricity
0.0009296
Mean motion
15.55739251 rev/d
Perigee alt
393.7 km
Apogee alt
406.3 km
Semi-major
6,778.1 km
B*
4.9662e-4
RAAN
350.7980°
Arg perigee
139.4562°
Mean anomaly
220.7387°
Rev number
11,190

§ Raw data

2024-173C1 61229U 24173C   26265.98573409  .00034262  00000+0  49662-3 0  99992 61229  97.3374 350.7980 0009296 139.4562 220.7387 15.55739251111907

JSON: /api/v1/satellites/61229 · /tle

For live sub-satellite position, see the globe view (requires WebGL).

§ Visibility from observer

Set your observer location to see the next 7 days of passes ≥ 10°. The values pass through the URL so the page stays shareable.

No JS? Fill the form by hand. The geolocation button needs JavaScript.